{"data":{"norad_id":56006,"epoch":"2026-09-20T02:35:30.132960Z","epoch_age_seconds":139947,"freshness":"FRESH","line1":"1 56006U 23042W   26263.10798765 -.00001369  00000+0 -40258-4 0  9993","line2":"2 56006  43.0018  49.2685 0001377 269.0278  91.0416 15.27565188192518","mean_motion":15.27565188,"eccentricity":0.0001377,"inclination_deg":43.0018,"raan_deg":49.2685,"arg_perigee_deg":269.0278,"mean_anomaly_deg":91.0416,"bstar":-4.0258e-5,"rev_number":19251,"period_min":94.267662768969,"perigee_km":482.14865742182,"apogee_km":484.03824028743,"semimajor_km":6861.2304488546,"source":"CELESTRAK","updated_at":"2026-09-21T09:00:33.353244Z"}}